Regional Weather Roundup
Issued by NWS

Home | Current Version | Previous Version | Text Only | Print | Product List | Glossary Off
Versions: 1 2 3 4 5 6 7 8 9 10 11 12 13 14 15 16 17 18 19 20 21 22 23 24 25 26 27 28 29 30 31 32 33 34 35 36 37 38 39 40 41 42 43 44 45 46 47 48 49 50

000
ASUS43 KDMX 032307
RWRIA

WEATHER ROUNDUP FOR IOWA
NATIONAL WEATHER SERVICE DES MOINES IA
600 PM CDT SUN MAY 03 2015

NOTE: "FAIR" INDICATES FEW OR NO CLOUDS BELOW 12,000 FEET WITH NO
SIGNIFICANT WEATHER AND/OR OBSTRUCTIONS TO VISIBILITY.

* - THESE STATIONS ARE NOT NWS STATIONS...THUS NOT UNDER NWS
QUALITY CONTROL.  THEY ALSO DO NOT REPORT WEATHER SUCH
AS PRECIPITATION OR FOG.

IAZ001>003-012>014-020>022-031>034-043>046-040000-
   NORTHWEST IOWA

CITY           SKY/WX    TMP DP  RH WIND       PRES   REMARKS
CARROLL *      SUNNY     82  59  44 S16       29.75S HX  82
CHEROKEE *     CLOUDY    82  55  39 W3        29.73S HX  82
DENISON *      SUNNY     82  57  42 SW10G18   29.72S HX  82
LE MARS *      MOSUNNY   81  52  36 N25G38    29.75R HX  80
ORANGE CITY *  SUNNY     75  46  35 NE22G33   29.77R
SHELDON *      SUNNY     77  48  36 N38G44    29.76S
SIOUX CITY     PTSUNNY   84  56  38 CALM      29.72S HX  83
SPENCER        LGT RAIN  71  63  75 N16G29    29.78R
STORM LAKE *   SUNNY     84  54  34 W9G16     29.75S HX  83
$$

IAZ055>058-069>071-079>083-090>094-040000-
   SOUTHWEST IOWA

CITY           SKY/WX    TMP DP  RH WIND       PRES   REMARKS
ATLANTIC *     SUNNY     79  61  53 SE8       29.75F HX  80
AUDUBON *      SUNNY     81  61  50 S9        29.78S HX  81
CLARINDA *     SUNNY     81  59  47 S12G17    29.80R HX  81
COUNCIL BLFS * SUNNY     77  63  61 S8        29.74F
CRESTON *      MOSUNNY   75  61  60 S14       29.79F
HARLAN  *      SUNNY     81  61  50 S10       29.78S HX  81
LAMONI         MOSUNNY   80  59  48 S16       29.81R HX  81
RED OAK *      PTSUNNY   75  63  64 VRB6G17   29.76R
SHENANDOAH *   MOSUNNY   81  61  50 SE9       29.78R HX  81
$$

IAZ047>049-059>061-072>074-084-040000-
   CENTRAL IOWA

CITY           SKY/WX    TMP DP  RH WIND       PRES   REMARKS
AMES           CLOUDY    80  59  48 S10       29.77R HX  81
ANKENY *       MOSUNNY   82  59  44 SW14G24   29.78R HX  82
CHARITON *     MOSUNNY   81  57  44 SW14G22   29.81R HX  81
DES MOINES     CLOUDY    82  56  40 SW15G23   29.79R HX  82
GRINNELL*      PTSUNNY   81  55  41 SW16G23   29.81S HX  80
KNOXVILLE *    SUNNY     79  57  47 S10       29.79R HX  80
MARSHALLTOWN   PTSUNNY   78  59  51 S13       29.78S
PELLA *        MOSUNNY   81  63  54 S14G20    29.81S HX  82
PERRY *          N/A     81  57  44 S16       29.77S HX  81
$$

IAZ004>006-015-016-023>025-035-036-040000-
   NORTH CENTRAL IOWA

CITY           SKY/WX    TMP DP  RH WIND       PRES   REMARKS
ALGONA *       SUNNY     82  57  42 S18       29.73S HX  82
CLARION *      SUNNY     84  57  39 S18       29.73F HX  83
ESTHERVILLE    TSTM      72  58  61 N26G43    29.75R
FORT DODGE *   MOSUNNY   81  61  50 S12       29.74F HX  81
MASON CITY     PTSUNNY   81  57  43 S18G24    29.74F HX  81
FOREST CITY *  MOSUNNY   79  54  41 S12G20    29.72F
IOWA FALLS *     N/A     79  57  47 S16       29.78F HX  80
$$

IAZ007>011-017>019-026>030-037>042-050>054-066-040000-
   NORTHEAST IOWA

CITY           SKY/WX    TMP DP  RH WIND       PRES   REMARKS
CEDAR RAPIDS   MOSUNNY   81  57  43 S16       29.81S HX  81
CHARLES CITY * MOSUNNY   81  57  44 S13G21    29.76F HX  81
CLINTON *      SUNNY     72  61  68 E12       29.88S
DECORAH *      MOSUNNY   81  55  41 S12       29.77F HX  80
DUBUQUE        SUNNY     71  60  68 SE10      29.86S
MONTICELLO *   MOSUNNY   75  64  69 SE10      29.83S
OELWEIN *      SUNNY     81  57  44 S17       29.80F HX  81
WATERLOO       MOSUNNY   81  57  43 S14G24    29.77F HX  81
$$

IAZ064-065-067-068-078-040000-
   EAST CENTRAL IOWA

CITY           SKY/WX    TMP DP  RH WIND       PRES   REMARKS
DAVENPORT      MOSUNNY   80  54  40 SW15G21   29.85S HX  80
IOWA CITY      SUNNY     82  57  42 S17G23    29.83S HX  82
MT. PLEASANT * SUNNY     82  52  34 S18G25    29.84R HX  81
MUSCATINE *    SUNNY     82  57  42 SW17      29.83S HX  82
QUAD CITIES    SUNNY     81  54  39 SW12      29.84R HX  81
$$

IAZ062-063-075>077-085>089-095>099-040000-
   SOUTHEAST IOWA

CITY           SKY/WX    TMP DP  RH WIND       PRES   REMARKS
BURLINGTON     SUNNY     82  56  40 S15G25    29.84F HX  82
FAIRFIELD *    SUNNY     81  55  41 S17G25    29.83R HX  80
FORT MADISON * SUNNY     82  54  36 S14G24    29.86R HX  81
KEOKUK *       SUNNY     79  57  47 S14G22    29.85R HX  80
OSKALOOSA *      N/A     82  55  39 SW14G24   29.82S HX  82
CENTERVILLE *  SUNNY     81  59  47 S18       29.84R HX  81
OTTUMWA        MOSUNNY   80  56  43 SW15G26   29.82R HX  80
WASHINGTON *   SUNNY     82  59  44 SW17G26   29.82S HX  82
$$

ABBREVIATIONS USED IN REMARKS
   TC - TEMPERATURES IN CELSIUS
  WCI - WIND CHILL INDEX
   HX - HEAT INDEX
  VSB - VISIBILITY
$$



USA.gov is the U.S. government's official web portal to all federal, state and local government web resources and services.